Location: Leuk
(46.3174°N, 7.6341°E)
Time: 13:02:14
(UTC+00:00)

NOSS 3-2 (C) - Pass Details

Date: 09 March 2021
Orbit: 783 x 1429 km, 63.4° (Epoch: 11 April)

Event Time Altitude Azimuth Distance (km) Brightness Sun altitude
Rises 04:14:55 0° 318° (NW) 3,996 6.4 -17.8°
Reaches altitude 10° 04:17:31 10° 315° (NW) 3,119 5.8 -17.4°
Maximum altitude 04:24:58 58° 239° (WSW) 1,496 4.1 -16.1°
Drops below altitude 10° 04:33:18 10° 163° (SSE) 3,477 6.5 -14.7°
Sets 04:36:22 0° 160° (SSE) 4,481 7.1 -14.2°
